Location: Gloden
(48.4833°N, 15.3167°E)
Time: 09:44:28
(UTC+00:00)

Cosmos 2263 Rocket - Pass Details

Date: 15 December 2019
Orbit: 824 x 848 km, 71.0° (Epoch: 17 January)

Event Time Altitude Azimuth Distance (km) Brightness Sun altitude
Exits shadow 03:42:41 54° 16° (NNE) 996 2.5 -28.7°
Drops below altitude 10° 03:46:59 10° 27° (NNE) 2,435 4.8 -28.0°
Sets 03:49:25 0° 28° (NNE) 3,372 5.6 -27.6°
